This is the latest recevied weather packets stored in our database for station/object DO7CRZ-12. If no packets are shown the sender has not sent any weather packets the latest 10 day(s).
| Time | Temp. | Humidity | Pressure | Rain* | Wind** | Luminosity | Snow |
|---|---|---|---|---|---|---|---|
| 1777508239 | 3.33° C | 62% | 1030.5 hPa | 0 mm | - | 0 W/m² | - |
| 1777507636 | 3.33° C | 60% | 1030.7 hPa | 0 mm | - | 0 W/m² | - |
| 1777507048 | 3.89° C | 55% | 1030.7 hPa | 0 mm | - | 0 W/m² | - |
| 1777506445 | 4.44° C | 52% | 1030.6 hPa | 0 mm | - | 0 W/m² | - |
| 1777505842 | 4.44° C | 51% | 1030.7 hPa | 0 mm | - | 0 W/m² | - |
| 1777505240 | 4.44° C | 50% | 1030.8 hPa | 0 mm | - | 0 W/m² | - |
| 1777504050 | 5° C | 47% | 1030.8 hPa | 0 mm | - | 0 W/m² | - |
| 1777503447 | 5° C | 47% | 1030.8 hPa | 0 mm | - | 0 W/m² | - |
| 1777502844 | 5.56° C | 47% | 1030.7 hPa | 0 mm | - | 0 W/m² | - |
| 1777502241 | 5.56° C | 46% | 1030.7 hPa | 0 mm | - | 0 W/m² | - |
| 1777501639 | 5.56° C | 46% | 1030.6 hPa | 0 mm | - | 0 W/m² | - |
| 1777501036 | 5.56° C | 46% | 1030.7 hPa | 0 mm | - | 0 W/m² | - |
| 1777499845 | 6.11° C | 43% | 1030.6 hPa | 0 mm | - | 0 W/m² | - |
| 1777499242 | 6.67° C | 42% | 1030.5 hPa | 0 mm | - | 0 W/m² | - |
| 1777498640 | 6.67° C | 42% | 1030.5 hPa | 0 mm | - | 0 W/m² | - |
| 1777498037 | 6.67° C | 42% | 1030.3 hPa | 0 mm | - | 0 W/m² | - |
| 1777497449 | 6.67° C | 41% | 1030.5 hPa | 0 mm | - | 0 W/m² | - |
| 1777496847 | 7.22° C | 39% | 1030.2 hPa | 0 mm | - | 0 W/m² | - |
| 1777496243 | 7.22° C | 38% | 1030.2 hPa | 0 mm | - | 0 W/m² | - |
| 1777495641 | 7.22° C | 36% | 1030.1 hPa | 0 mm | - | 0 W/m² | - |
| 1777494450 | 7.78° C | 34% | 1029.9 hPa | 0 mm | - | 0 W/m² | - |
| 1777493847 | 8.33° C | 34% | 1030 hPa | 0 mm | - | 0 W/m² | - |
| 1777493244 | 8.89° C | 32% | 1029.9 hPa | 0 mm | - | 0 W/m² | - |
| 1777492641 | 8.89° C | 31% | 1030 hPa | 0 mm | - | 0 W/m² | - |
| 1777492039 | 8.89° C | 30% | 1029.9 hPa | 0 mm | - | 0 W/m² | - |
* Rain latest hour (hover to see other rain measurements)
** Current wind speed in m/s (hover to see current wind gust speed)